Weather History for Nashua, NH

Change the Weather History Date:

Saturday, September 7, 2013

  Actual Average Record
Temperature  
Mean Temperature 62 °F -  
Max Temperature 79 °F 75 °F 95 °F (2007)
Min Temperature 45 °F 51 °F 32 °F (1962)
Degree Days  
Heating Degree Days 3    
Growing Degree Days 12 (Base 50)    
Moisture  
Dew Point 49 °F    
Average Humidity 64    
Maximum Humidity 93    
Minimum Humidity 28    
Precipitation  
Precipitation 0.01 in - - ()
Sea Level Pressure  
Sea Level Pressure 30.71 in    
Wind  
Wind Speed 1 mph (West)    
Max Wind Speed 7 mph    
Max Gust Speed -    
Visibility 10 miles    
Events Rain    
Averages and records for this station are not official NWS values.
T = Trace of Precipitation, MM = Missing Value Source: NWS Daily Summary

Daily Weather History Graph

Daily Weather History Graph

Search for Another Location

Airport:

Trip Planner

Search our weather history database for the weather conditions in past years. The results will help you decide how hot, cold, wet, or windy it might be!

Date:

Astronomy

Sep. 07, 2013 Rise Set
Actual Time 6:17 AM EDT 7:09 PM EDT
Civil Twilight 5:48 AM EDT 7:38 PM EDT
Nautical Twilight 5:14 AM EDT 8:12 PM EDT
Astronomical Twilight 4:38 AM EDT 8:47 PM EDT
Moon 8:33 AM EDT (9/7) 8:01 PM EDT (9/7)
Length of Visible Light 13h 49m
Length of Day
12h 52m
Waxing Crescent, 5% of the Moon is Illuminated
Sep 7
Waxing Crescent
Sep 12
First Quarter
Sep 19
Full
Sep 26
Last Quarter
Oct 4
New

Hourly Weather History & Observations

Time (EDT) Temp. Dew Point Humidity Pressure Visibility Wind Dir Wind Speed Gust Speed Precip Events Conditions
12:51 AM 50.9 °F 45.9 °F 83% 30.82 in 10.0 mi Calm Calm - N/A   Clear
1:51 AM 52.0 °F 45.9 °F 80% 30.81 in 10.0 mi Calm Calm - N/A   Clear
2:51 AM 48.9 °F 45.0 °F 86% 30.80 in 10.0 mi Calm Calm - N/A   Clear
3:51 AM 47.8 °F 45.0 °F 90% 30.80 in 10.0 mi Calm Calm - N/A   Clear
4:51 AM 46.9 °F 43.9 °F 89% 30.79 in 10.0 mi Calm Calm - N/A   Clear
5:51 AM 45.9 °F 43.9 °F 93% 30.79 in 10.0 mi Calm Calm - N/A   Clear
6:51 AM 46.9 °F 43.9 °F 89% 30.80 in 10.0 mi Calm Calm - N/A   Clear
7:51 AM 52.0 °F 45.0 °F 77% 30.79 in 10.0 mi Calm Calm - N/A   Clear
8:51 AM 61.0 °F 47.8 °F 62% 30.77 in 10.0 mi Calm Calm - N/A   Clear
9:51 AM 66.9 °F 45.9 °F 47% 30.76 in 10.0 mi West 5.8 mph - N/A   Clear
10:51 AM 70.9 °F 47.8 °F 44% 30.75 in 10.0 mi West 4.6 mph - N/A   Clear
11:51 AM 73.9 °F 47.8 °F 40% 30.71 in 10.0 mi Variable 4.6 mph - N/A   Clear
12:51 PM 77.9 °F 45.0 °F 31% 30.69 in 10.0 mi Variable 5.8 mph - N/A   Clear
1:51 PM 79.9 °F 43.9 °F 28% 30.67 in 10.0 mi Variable 4.6 mph - N/A   Clear
2:51 PM 79.9 °F 47.8 °F 32% 30.64 in 10.0 mi WNW 6.9 mph - 0.00 in   Clear
3:51 PM 79.0 °F 50.9 °F 37% 30.63 in 10.0 mi Variable 4.6 mph - N/A   Clear
4:51 PM 77.9 °F 52.0 °F 40% 30.63 in 10.0 mi West 5.8 mph - N/A   Clear
5:51 PM 74.8 °F 54.9 °F 50% 30.63 in 10.0 mi West 3.5 mph - N/A   Partly Cloudy
6:51 PM 72.0 °F 54.0 °F 53% 30.63 in 10.0 mi Calm Calm - N/A   Clear
7:51 PM 68.9 °F 55.9 °F 63% 30.63 in 10.0 mi Variable 3.5 mph - 0.00 in Rain Light Rain
8:51 PM 65.8 °F 55.9 °F 70% 30.62 in 10.0 mi Calm Calm - 0.00 in Rain Light Rain
9:51 PM 63.9 °F 56.8 °F 78% 30.61 in 10.0 mi Calm Calm - 0.00 in Rain Light Rain
10:51 PM 63.0 °F 59.0 °F 87% 30.60 in 10.0 mi Calm Calm - 0.01 in   Partly Cloudy
11:51 PM 63.9 °F 56.8 °F 78% 30.58 in 10.0 mi Calm Calm - N/A   Overcast